Wind_Speed
44 44 44 44 44 44 44 44 43 43 42 41 40 39 39 39 39 39 40 41 41 41 41 41 41 41 42 42 43 43 44 44 46 48 51 54 57 58 59 59 60 59
47 47 47 46 46 46 46 46 46 45 45 44 43 42 41 41 41 41 42 42 43 43 43 43 43 43 43 44 44 45 45 45 46 47 49 52 54 57 58 59 61 62
49 49 50 50 49 49 49 48 48 48 47 47 46 45 45 44 43 43 43 44 44 45 45 45 45 45 45 45 46 46 47 47 47 47 49 51 53 55 56 58 59 63
50 51 51 51 51 51 51 51 51 50 50 49 49 48 48 47 47 46 45 45 46 47 47 47 47 47 48 48 48 48 49 49 49 49 50 51 53 54 55 56 58 60
52 52 53 52 52 53 53 52 52 52 52 51 51 50 50 50 50 49 49 48 48 48 49 49 50 50 50 50 51 51 51 51 51 51 52 52 52 54 55 56 57 58
54 54 54 54 54 54 54 53 53 53 53 53 53 53 52 52 52 52 52 51 51 50 51 52 52 52 52 52 53 53 53 53 53 53 54 54 54 54 55 56 57 58
57 57 56 56 55 55 54 54 54 54 54 54 55 55 55 55 55 54 54 54 54 54 53 54 54 55 55 55 55 55 55 55 56 55 55 56 56 56 56 57 58 58
61 60 60 59 59 58 57 56 55 55 55 56 56 56 57 57 57 57 57 57 57 57 57 56 57 57 57 58 58 58 58 58 57 58 58 57 58 58 58 58 59 59
62 62 63 62 62 62 62 60 59 58 58 58 58 58 58 59 59 59 60 60 60 60 59 60 60 60 60 60 60 60 60 60 60 59 59 59 59 60 60 60 60 61
63 63 64 64 64 64 65 64 64 63 62 61 61 61 61 61 61 61 62 63 63 62 62 62 63 63 64 64 63 63 63 63 62 62 61 61 61 61 62 62 62 62
61 62 62 63 64 65 67 67 67 66 66 65 64 65 64 64 63 64 64 64 65 65 65 65 66 67 67 67 67 67 67 66 65 65 64 64 64 64 64 64 64 65
60 60 60 60 62 64 66 67 67 67 67 67 67 67 67 67 67 67 66 66 66 67 67 68 69 70 70 70 70 70 70 69 69 68 68 68 67 67 67 67 67 67
60 59 59 59 60 61 63 65 65 65 66 67 69 69 69 70 70 69 69 69 69 69 70 71 72 72 73 73 73 73 73 73 73 73 73 72 71 71 70 70 69 69
61 60 60 60 60 61 62 63 64 63 64 65 67 69 70 71 71 71 72 72 72 72 73 74 74 74 75 76 77 77 77 77 77 77 76 76 75 75 74 74 73 73
64 63 62 62 62 62 62 63 63 63 62 63 64 65 67 68 69 71 72 73 73 74 76 77 77 77 79 80 80 80 80 80 80 80 79 79 79 78 78 78 77 77
66 66 65 65 64 64 64 64 64 63 63 62 62 63 64 65 67 69 71 71 72 74 77 79 79 81 82 83 83 82 81 81 82 82 82 82 82 82 81 81 81 81
69 69 68 67 67 66 66 66 65 65 65 64 63 64 64 64 66 68 69 70 72 74 76 77 78 81 83 84 85 84 84 84 83 84 84 84 84 84 84 84 85 84
71 71 71 70 70 69 69 68 68 67 67 67 66 66 65 65 66 67 68 70 71 73 74 75 77 79 81 83 85 86 87 87 86 86 86 85 86 86 87 87 88 88
73 72 72 72 72 72 71 71 70 70 70 69 69 68 67 67 67 67 68 69 70 71 73 74 75 77 78 80 82 84 87 88 88 88 88 88 88 88 88 89 89 90
73 73 73 73 73 73 73 73 73 72 72 72 71 70 70 69 69 69 69 70 71 71 72 72 73 75 76 77 79 81 84 86 87 88 89 90 91 91 91 91 91 92
75 75 74 74 74 74 74 74 74 74 74 74 73 73 72 71 71 71 71 71 72 72 72 72 72 73 74 76 78 80 82 83 84 86 88 89 90 91 92 93 94 94
77 76 76 76 75 75 75 75 75 75 75 75 75 74 74 73 73 72 73 73 74 73 73 72 72 72 73 75 77 79 81 83 84 86 87 89 89 90 90 92 93 94
79 78 77 77 77 76 76 76 76 76 76 76 75 75 75 75 74 74 74 75 75 74 73 73 73 73 74 75 77 79 81 83 85 87 89 90 91 91 92 92 92 93
79 78 78 77 78 77 77 77 77 77 77 76 76 76 75 75 75 75 75 75 75 74 74 73 73 74 75 76 77 79 81 83 85 87 89 90 91 92 93 93 94 94
79 78 78 78 78 78 78 77 77 77 77 77 77 76 76 76 76 76 76 76 75 74 74 74 74 74 75 77 78 80 81 83 84 85 87 88 90 91 92 93 94 95
78 78 78 78 78 78 78 78 78 78 78 78 78 78 77 77 77 77 76 76 75 75 75 74 74 75 76 77 78 79 80 82 83 84 84 85 86 88 90 92 93 94
Wind_Direction
249 249 249 250 251 252 253 253 253 254 253 252 251 251 250 249 248 246 244 243 242 241 240 240 240 241 241 240 239 238 237 236 234 233 234 234 234 233 231 230 230 228
249 249 249 249 250 250 251 251 251 252 252 252 251 250 250 250 249 248 246 244 243 242 241 241 241 241 241 241 240 239 239 238 236 235 234 235 235 235 235 234 232 231
251 250 250 249 249 249 249 250 250 250 250 250 250 249 249 249 249 248 247 246 244 243 242 242 242 241 241 241 241 241 240 239 238 237 236 235 236 236 237 237 235 233
252 251 250 250 250 249 249 248 248 249 249 249 249 249 249 249 249 248 248 247 245 244 243 242 242 243 242 242 241 241 240 239 239 238 237 236 236 237 237 238 237 235
254 253 252 251 250 250 250 249 248 248 248 249 249 249 249 249 249 248 248 247 246 245 244 244 243 243 243 243 242 241 241 240 239 239 238 238 236 237 238 238 238 238
256 255 254 253 252 252 251 251 250 250 249 249 249 249 250 250 250 249 248 247 247 246 245 245 244 244 244 243 243 242 241 241 241 240 239 239 238 237 237 238 238 239
256 256 256 255 255 254 253 252 251 251 250 250 249 249 249 249 250 250 249 248 247 247 246 246 245 245 245 245 244 243 243 242 241 241 241 240 240 239 238 238 238 239
256 256 256 256 256 255 254 253 252 251 251 250 250 249 248 248 248 249 249 248 248 247 247 247 247 246 246 246 246 245 244 244 242 242 242 242 241 241 240 239 239 239
256 256 256 256 256 256 255 254 252 251 250 250 249 249 249 248 247 247 247 247 247 247 247 247 247 247 247 247 246 246 246 245 245 243 243 242 242 242 242 242 241 241
256 255 256 256 256 256 255 254 252 251 250 249 249 249 248 248 248 247 246 246 246 246 247 247 247 247 247 247 247 247 247 246 246 246 245 244 244 243 242 242 242 242
256 254 254 254 255 255 254 254 253 252 251 250 249 249 249 248 248 247 247 246 246 246 246 247 247 247 246 246 246 246 247 247 247 247 247 246 246 245 244 243 242 242
257 255 254 253 253 254 254 254 253 253 253 252 251 250 249 249 249 248 248 247 247 246 246 246 247 247 247 246 246 246 246 247 247 247 247 247 247 247 246 246 245 243
259 257 256 254 253 253 254 254 253 252 253 252 252 251 250 249 249 249 249 249 248 248 247 247 247 247 247 247 246 246 246 246 246 246 246 246 247 247 247 247 247 246
260 259 258 257 255 254 254 255 254 253 252 252 252 252 251 250 250 249 249 249 249 249 249 249 249 248 248 248 247 246 245 245 245 245 245 245 246 246 247 247 247 247
261 261 260 260 259 257 257 256 256 255 253 253 253 253 253 253 252 250 249 249 249 250 250 250 250 249 249 249 248 247 246 246 246 246 246 246 246 246 246 247 247 247
261 261 261 260 260 260 259 259 259 258 256 255 254 254 254 254 253 252 251 249 249 249 249 249 250 250 250 250 250 249 249 248 247 247 246 246 247 247 247 247 247 247
261 261 261 261 261 260 260 260 260 259 259 257 256 255 254 253 253 253 252 251 249 249 249 249 250 251 252 252 252 251 251 250 249 249 248 248 248 248 248 248 248 248
262 262 262 262 262 262 261 261 260 260 260 259 258 257 256 255 254 254 253 252 251 251 250 250 250 250 252 253 254 254 253 252 251 250 249 249 249 249 249 249 249 248
261 262 262 262 262 262 262 262 261 261 261 260 260 259 258 257 256 255 255 254 253 252 252 251 251 251 252 253 254 255 255 255 254 253 252 251 250 249 249 249 249 249
259 260 260 260 261 261 261 261 261 261 261 260 260 259 259 258 258 257 257 256 255 254 253 252 252 252 253 253 254 255 255 256 256 256 255 254 253 252 251 250 250 250
259 259 259 259 259 260 260 260 260 260 260 260 260 260 259 259 259 258 258 257 257 256 255 254 254 253 254 254 254 254 255 255 256 256 256 256 255 254 254 253 252 251
261 261 261 260 260 260 260 260 260 260 260 260 260 260 260 260 259 259 258 258 258 257 257 256 256 255 254 254 254 255 255 255 256 256 256 256 257 257 256 255 254 253
262 262 262 262 261 261 261 261 261 261 261 261 261 261 261 261 260 260 259 259 258 258 258 258 257 257 256 255 254 254 254 255 255 255 256 256 257 257 258 257 257 256
262 262 262 262 262 262 261 261 261 261 261 262 262 261 261 261 261 261 260 260 259 259 259 258 258 257 257 257 256 255 255 254 254 255 256 256 257 258 258 259 259 259
261 261 261 261 261 261 261 261 261 261 261 262 262 261 261 261 261 261 261 261 261 260 260 259 258 258 257 257 257 257 257 256 256 256 256 256 257 258 259 259 259 260
261 261 260 260 260 260 260 260 260 260 260 261 261 261 261 261 261 261 261 261 261 261 261 260 260 259 258 258 257 257 257 258 258 258 258 258 258 258 259 259 259 259
Height
10566 10567 10568 10569 10570 10570 10571 10572 10574 10575 10577 10578 10579 10580 10581 10583 10584 10584 10585 10587 10588 10589 10590 10591 10592 10594 10595 10596 10598 10599 10601 10603 10605 10606 10608 10610 10612 10614 10617 10619 10621 10623
10561 10562 10563 10563 10564 10565 10565 10566 10568 10569 10570 10572 10574 10575 10576 10577 10578 10579 10580 10581 10582 10583 10585 10586 10587 10588 10589 10590 10592 10593 10595 10597 10598 10600 10602 10604 10605 10607 10610 10612 10615 10616
10555 10556 10556 10557 10558 10559 10560 10561 10561 10563 10564 10565 10567 10569 10570 10571 10572 10573 10574 10575 10576 10578 10579 10581 10582 10583 10583 10584 10586 10587 10589 10590 10592 10594 10596 10597 10599 10601 10603 10606 10608 10610
10547 10548 10549 10550 10551 10552 10553 10554 10555 10556 10558 10559 10560 10562 10564 10565 10566 10567 10568 10569 10570 10572 10573 10574 10576 10576 10577 10578 10579 10581 10582 10583 10585 10587 10589 10590 10592 10594 10596 10599 10601 10603
10539 10540 10541 10543 10544 10545 10546 10548 10550 10551 10552 10554 10555 10556 10557 10558 10559 10561 10562 10563 10564 10565 10566 10567 10569 10570 10571 10572 10573 10574 10576 10577 10578 10580 10581 10583 10585 10587 10590 10592 10594 10596
10531 10532 10533 10536 10537 10538 10540 10542 10544 10545 10547 10548 10549 10550 10551 10552 10553 10554 10555 10556 10558 10559 10559 10560 10561 10562 10563 10564 10566 10567 10569 10571 10572 10574 10575 10577 10579 10581 10582 10584 10586 10588
10523 10524 10526 10528 10529 10530 10533 10535 10537 10538 10540 10541 10541 10543 10544 10545 10546 10547 10548 10549 10550 10551 10552 10553 10554 10555 10556 10557 10558 10560 10562 10563 10565 10567 10569 10571 10572 10574 10576 10577 10579 10580
10515 10516 10518 10519 10521 10522 10524 10526 10529 10530 10531 10532 10533 10535 10536 10537 10538 10539 10540 10541 10543 10544 10545 10546 10547 10548 10548 10549 10551 10552 10554 10555 10558 10560 10562 10564 10566 10568 10570 10571 10573 10574
10507 10508 10509 10511 10512 10513 10514 10517 10520 10521 10523 10524 10525 10527 10528 10528 10530 10531 10532 10532 10534 10535 10537 10538 10539 10540 10540 10541 10543 10544 10546 10547 10550 10552 10554 10557 10559 10561 10563 10565 10567 10569
10497 10499 10500 10501 10503 10503 10504 10506 10509 10511 10513 10514 10516 10517 10518 10519 10521 10522 10523 10524 10525 10527 10529 10530 10530 10531 10532 10533 10535 10536 10538 10539 10542 10544 10547 10549 10551 10553 10555 10557 10559 10561
10487 10489 10490 10492 10493 10493 10493 10495 10498 10500 10502 10505 10507 10507 10509 10511 10512 10513 10514 10515 10517 10519 10520 10521 10521 10521 10522 10524 10526 10528 10530 10532 10534 10537 10539 10540 10542 10543 10545 10547 10549 10551
10476 10478 10480 10482 10483 10482 10483 10485 10488 10491 10493 10495 10497 10498 10500 10501 10502 10504 10506 10507 10509 10511 10511 10511 10511 10511 10513 10515 10517 10519 10521 10524 10526 10528 10529 10530 10532 10534 10536 10538 10539 10542
10466 10468 10470 10472 10474 10474 10474 10475 10478 10481 10483 10485 10486 10487 10490 10491 10492 10496 10498 10498 10500 10502 10502 10502 10502 10503 10505 10506 10508 10509 10511 10513 10514 10516 10518 10520 10522 10525 10526 10529 10531 10532
10456 10458 10460 10462 10464 10465 10465 10465 10468 10472 10474 10475 10476 10477 10480 10481 10484 10487 10487 10488 10490 10492 10493 10493 10494 10495 10495 10494 10495 10497 10499 10501 10503 10505 10508 10511 10513 10515 10517 10519 10521 10523
10447 10448 10450 10452 10454 10455 10456 10457 10459 10462 10464 10466 10467 10468 10469 10471 10473 10476 10477 10479 10482 10483 10482 10482 10483 10484 10483 10482 10484 10487 10490 10493 10495 10497 10499 10502 10504 10506 10507 10510 10512 10513
10437 10438 10440 10442 10444 10445 10447 10448 10450 10452 10453 10456 10457 10458 10460 10462 10463 10464 10466 10469 10471 10470 10469 10470 10472 10473 10472 10473 10475 10479 10482 10484 10486 10488 10490 10492 10494 10495 10497 10499 10501 10503
10427 10429 10430 10432 10434 10436 10437 10439 10440 10442 10443 10445 10447 10448 10450 10452 10453 10453 10454 10456 10458 10458 10458 10460 10462 10462 10463 10464 10466 10468 10470 10473 10475 10477 10480 10482 10484 10485 10487 10489 10490 10492
10417 10419 10420 10422 10423 10425 10427 10428 10430 10431 10432 10434 10435 10437 10439 10442 10442 10442 10443 10444 10446 10447 10448 10451 10453 10453 10454 10455 10456 10457 10458 10460 10464 10467 10468 10471 10473 10474 10476 10477 10479 10480
10407 10409 10410 10412 10413 10414 10416 10417 10419 10420 10421 10422 10424 10426 10428 10430 10431 10432 10433 10433 10434 10436 10437 10440 10442 10444 10446 10447 10447 10446 10447 10449 10453 10455 10457 10459 10461 10463 10464 10466 10467 10468
10398 10399 10400 10401 10402 10403 10405 10406 10407 10408 10409 10410 10412 10414 10416 10418 10419 10421 10422 10422 10423 10425 10427 10430 10432 10434 10436 10437 10437 10436 10436 10438 10441 10443 10444 10446 10448 10450 10452 10454 10455 10456
10387 10389 10390 10391 10392 10393 10394 10395 10396 10397 10398 10399 10401 10403 10405 10407 10408 10410 10411 10411 10412 10414 10416 10420 10422 10424 10426 10426 10425 10426 10426 10427 10429 10430 10431 10432 10434 10437 10439 10441 10442 10444
10375 10377 10378 10380 10381 10383 10384 10384 10385 10386 10387 10388 10390 10392 10394 10395 10397 10399 10400 10400 10401 10403 10406 10409 10411 10414 10415 10415 10415 10415 10415 10416 10417 10417 10417 10419 10421 10422 10424 10426 10428 10430
10361 10364 10366 10368 10369 10371 10373 10373 10374 10375 10376 10377 10379 10381 10382 10384 10385 10387 10388 10388 10389 10393 10396 10398 10400 10402 10403 10403 10404 10405 10404 10404 10404 10404 10405 10406 10408 10409 10411 10412 10414 10417
10349 10352 10355 10357 10358 10359 10361 10362 10363 10364 10365 10366 10368 10370 10371 10372 10373 10375 10376 10376 10378 10382 10385 10387 10389 10390 10391 10391 10392 10392 10391 10391 10392 10392 10393 10395 10396 10397 10399 10400 10402 10403
10338 10341 10343 10345 10346 10347 10349 10350 10352 10352 10353 10355 10356 10358 10359 10361 10362 10362 10364 10365 10368 10370 10373 10375 10377 10378 10379 10380 10380 10380 10379 10379 10380 10381 10382 10384 10385 10387 10388 10389 10390 10390
10327 10329 10331 10333 10335 10336 10337 10339 10340 10341 10343 10344 10345 10346 10348 10349 10350 10351 10352 10354 10357 10358 10360 10363 10365 10366 10366 10367 10367 10368 10368 10368 10368 10369 10371 10374 10375 10376 10376 10376 10376 10377